Погода в Нюкёбинге

Дания     54°46′11″N   11°52′19″E
темп.,
°C
ветер,
м/с
пор.,
м/с
влажн.,
%
обл.,
%
осадки,
мм/ч
давл.,
гПа
погр.,
м
2 августа, пн
пн223:00+14з49745 0.0 1006297
02:00+13з510815 0.1 1006329
05:00+13з5108119 0.1 1006371
08:00+16з710675 0.3 10061161
11:00+18з895978 0.1 10071521
14:00+19зсз676337 0.3 10081136
17:00+20зсз565641 0.4 10081365
20:00+17зсз796913 1.1 1009779
3 августа, вт
вт323:00+16зсз6761100 0.0 1011973
02:00+15зсз5762100 0.1 1012909
05:00+15зсз4772100 0.1 1012485
08:00+15зсз4674100 0.3 1012706
11:00+17з456090 0.2 10131186
14:00+18з555289 0.3 10131552
17:00+19зюз564992 0.0 10131595
20:00+17з236244 0.0 101395
4 августа, ср
ср423:00+13з127753 0.0 101422
02:00+12сз11815 0.0 101419
05:00+12всв11824 0.0 101425
08:00+16всв22674 0.0 1014210
11:00+20юв33535 0.0 10141192
14:00+21юв324710 0.1 10141316
17:00+21вюв324730 0.0 10131424
20:00+18в456324 0.0 1013284
5 августа, чт
чт523:00+15в347946 0.0 101476
02:00+15в358274 0.0 1013105
05:00+14в468358 0.0 1012132
08:00+19в576597 0.0 1012531
11:00+21в6859100 0.0 1011912
14:00+22в785649 0.3 10091088
17:00+22в776110 0.0 1008847
20:00+19в6977100 0.3 1007366
6 августа, пт
пт623:00+18вюв4784100 0.9 1006162
02:00+16ю34925 1.0 100565
05:00+16зюз33925 0.5 100562
08:00+18ююз237894 0.5 1005319
11:00+21ююз336275 0.0 1005844
14:00+22юз43545 0.0 10051206
17:00+23ююз11499 0.0 10041350
20:00+20вюв22615 0.0 100440